This is the latest recevied weather packets stored in our database for station/object CQ0XVC-11. If no packets are shown the sender has not sent any weather packets the latest 1 day(s).
| Time | Temp. | Humidity | Pressure | Rain* | Wind** | Luminosity | Snow |
|---|---|---|---|---|---|---|---|
| 1778031720 | 8.33° C | 76% | 1002.1 hPa | 0 mm | 0.45 m/s, 90° | - | - |
| 1778031468 | 8.33° C | 77% | 1002.2 hPa | 0 mm | 0.89 m/s, 56° | - | - |
| 1778031418 | 8.33° C | 77% | 1002.2 hPa | 0 mm | 0.89 m/s, 56° | - | - |
| 1778030814 | 8.89° C | 75% | 1002.3 hPa | 0 mm | 0.45 m/s, 45° | - | - |
| 1778030591 | 8.89° C | 76% | 1002.3 hPa | 0 mm | 1.34 m/s, 90° | - | - |
| 1778030511 | 8.89° C | 76% | 1002.3 hPa | 0 mm | 1.34 m/s, 90° | - | - |
| 1778030209 | 8.89° C | 75% | 1002.3 hPa | 0 mm | 0.89 m/s, 90° | - | - |
| 1778029908 | 8.89° C | 76% | 1002.5 hPa | 0 mm | 0.89 m/s, 90° | - | - |
| 1778029605 | 8.89° C | 76% | 1002.5 hPa | 0 mm | 2.24 m/s, 90° | - | - |
| 1778029302 | 8.89° C | 76% | 1002.6 hPa | 0 mm | 1.34 m/s, 78° | - | - |
| 1778029032 | 8.89° C | 76% | 1002.4 hPa | 0 mm | 0.89 m/s, 45° | - | - |
| 1778029000 | 8.89° C | 76% | 1002.4 hPa | 0 mm | 0.89 m/s, 45° | - | - |
| 1778028765 | 8.89° C | 75% | 1002.6 hPa | 0 mm | 1.34 m/s, 45° | - | - |
| 1778028698 | 8.89° C | 75% | 1002.6 hPa | 0 mm | 1.34 m/s, 45° | - | - |
| 1778028435 | 8.89° C | 75% | 1002.5 hPa | 0 mm | 0.89 m/s, 90° | - | - |
| 1778028396 | 8.89° C | 75% | 1002.5 hPa | 0 mm | 0.89 m/s, 90° | - | - |
| 1778028093 | 8.89° C | 74% | 1002.7 hPa | 0 mm | 0.45 m/s, 135° | - | - |
| 1778027844 | 8.89° C | 75% | 1002.6 hPa | 0 mm | 0.45 m/s, 90° | - | - |
| 1778027791 | 8.89° C | 75% | 1002.6 hPa | 0 mm | 0.45 m/s, 90° | - | - |
| 1778027184 | 8.89° C | 74% | 1002.8 hPa | 0 mm | 0.45 m/s, 90° | - | - |
| 1778026921 | 8.89° C | 73% | 1002.8 hPa | 0 mm | 0 m/s | - | - |
| 1778026881 | 8.89° C | 73% | 1002.8 hPa | 0 mm | 0 m/s | - | - |
| 1778026612 | 8.89° C | 73% | 1002.7 hPa | 0 mm | 0.45 m/s, 135° | - | - |
| 1778026580 | 8.89° C | 73% | 1002.7 hPa | 0 mm | 0.45 m/s, 135° | - | - |
| 1778026013 | 8.89° C | 73% | 1002.9 hPa | 0 mm | 0.45 m/s, 90° | - | - |
* Rain since midnight (hover to see other rain measurements)
** Current wind speed in m/s (hover to see current wind gust speed)